Location: Oroua River
(40.4333°S, 175.4333°E)
Time: 18:07:07
(UTC+00:00)

ADEOS II - Visible Passes

Search period start: 01 October 2023 00:00
Search period end: 11 October 2023 00:00
Orbit: 797 x 800 km, 98.7° (Epoch: 01 October)

Date Brightness Start Highest point End Pass type
(mag) Time Alt. Az. Time Alt. Az. Time Alt. Az.
01 Oct 5.1 12:26:07 10° SSE 12:26:07 10° SSE 12:26:08 10° SSE visible
02 Oct 4.8 13:39:25 12° S 13:39:25 12° S 13:39:52 10° SSW visible
03 Oct 4.8 13:11:51 14° S 13:11:51 14° S 13:12:35 10° S visible
04 Oct 4.9 12:44:16 13° SSE 12:44:16 13° SSE 12:45:00 10° S visible
05 Oct 5.0 12:16:40 11° SSE 12:16:40 11° SSE 12:16:57 10° SSE visible
05 Oct 4.6 13:57:34 13° SSW 13:57:34 13° SSW 13:58:09 10° SSW visible
06 Oct 4.6 13:29:58 16° S 13:29:58 16° S 13:31:02 10° S visible
07 Oct 4.6 13:02:23 17° S 13:02:23 17° S 13:03:39 10° S visible
08 Oct 4.8 12:34:48 15° SSE 12:34:48 15° SSE 12:35:57 10° SSE visible
08 Oct 4.5 14:15:41 13° SSW 14:15:41 13° SSW 14:16:19 10° SSW visible
09 Oct 4.9 12:07:13 11° SE 12:07:13 11° SE 12:07:37 10° SSE visible
09 Oct 4.4 13:48:06 18° SSW 13:48:06 18° SSW 13:49:22 10° SSW visible
10 Oct 4.3 13:20:30 20° S 13:20:30 20° S 13:22:09 10° S visible
